Location: Lecco
(45.8566°N, 9.3977°E)
Time: 19:42:18
(UTC+02:00)

Courier 1B Rocket - Pass Details

Date: 26 August 2019
Orbit: 920 x 1202 km, 28.2° (Epoch: 14 October)

Event Time Altitude Azimuth Distance (km) Brightness Sun altitude
Rises 06:01:09 0° 245° (WSW) 3,934 - -6.4°
Exits shadow 06:03:23 - 236° (SW) 3,348 7.1 -6.1°
Reaches altitude 10° 06:04:49 10° 228° (SW) 3,023 7.0 -5.9°
Maximum altitude 06:09:40 19° 187° (S) 2,487 6.9 -5.1°
Drops below altitude 10° 06:14:39 10° 147° (SSE) 3,109 7.8 -4.3°
Sets 06:18:30 0° 130° (SE) 4,088 8.7 -3.6°
